GW2158 Weather Reports


time (UTC)temp
F
wind
direction
speed
knots
gust
knots
rain 1hr
in
rain 24hr
in
rain mn
in
humidity
%
barometer
mb
20260508174738 53 23 7.0 20.9 0.00 0.01 0.00 48 1006.1
20260508173208 53 23 9.6 21.7 0.00 0.01 0.00 47 1006.0
20260508172657 53 0 8.7 21.7 0.00 0.01 0.00 49 1006.1
20260508172148 53 0 8.7 21.7 0.00 0.01 0.00 48 1006.3
20260508171638 52 0 11.3 23.5 0.00 0.01 0.00 48 1006.1
20260508171127 52 23 12.2 23.5 0.00 0.01 0.00 48 1006.1
20260508170107 52 0 13.0 29.5 0.00 0.01 0.00 49 1006.4
20260508165557 52 338 14.8 20.9 0.00 0.01 0.00 49 1006.2
20260508165047 52 338 9.6 25.2 0.00 0.01 0.00 50 1006.4
20260508164537 52 0 11.3 26.1 0.00 0.01 0.00 49 1006.3
20260508164027 51 23 13.9 26.1 0.00 0.01 0.00 50 1006.6
20260508163517 52 23 13.0 20.0 0.00 0.01 0.00 50 1006.5
20260508163007 51 23 9.6 21.7 0.00 0.01 0.00 52 1006.2
20260508162457 51 338 13.0 21.7 0.00 0.01 0.00 51 1006.4
20260508161946 52 23 10.4 21.7 0.00 0.01 0.00 53 1006.5
20260508161440 51 45 6.1 20.9 0.00 0.01 0.00 52 1006.5
20260508160926 51 0 9.6 25.2 0.00 0.01 0.00 53 1006.7
20260508160416 51 338 9.6 25.2 0.00 0.01 0.00 53 1006.6
20260508155906 51 23 14.8 25.2 0.00 0.01 0.00 52 1006.7
20260508155356 50 315 11.3 26.1 0.00 0.01 0.00 52 1006.7
20260508154846 51 338 9.6 26.1 0.00 0.01 0.00 54 1006.7
20260508154336 50 23 9.6 25.2 0.00 0.01 0.00 55 1006.7
20260508153825 50 23 7.0 21.7 0.00 0.01 0.00 55 1006.9
20260508153315 50 23 13.9 26.9 0.00 0.01 0.00 55 1007.1
20260508152805 50 23 11.3 26.9 0.00 0.01 0.00 56 1006.9
20260508152255 50 45 9.6 21.7 0.00 0.01 0.00 56 1007.0
20260508150725 49 45 9.6 23.5 0.00 0.01 0.00 56 1007.3
20260508150215 49 338 13.0 23.5 0.00 0.01 0.00 57 1007.3
20260508145704 49 23 9.6 25.2 0.00 0.01 0.00 57 1007.2
20260508145154 49 0 7.8 25.2 0.00 0.01 0.00 59 1007.3
20260508144644 49 23 10.4 21.7 0.00 0.01 0.00 58 1007.2
20260508143114 48 23 13.0 23.5 0.00 0.01 0.00 59 1007.4
20260508142603 48 338 12.2 23.5 0.00 0.01 0.00 59 1007.4
20260508142053 48 23 8.7 21.7 0.00 0.01 0.00 59 1007.3
20260508141033 48 338 15.6 26.1 0.00 0.01 0.00 60 1007.7
20260508140524 48 338 7.0 26.1 0.00 0.01 0.00 61 1007.6
20260508140013 47 338 9.6 26.1 0.00 0.01 0.00 60 1007.8
20260508135503 47 338 13.0 26.1 0.00 0.01 0.00 60 1007.6
20260508134953 47 0 9.6 26.1 0.00 0.01 0.00 61 1007.6
20260508134443 46 0 13.9 26.1 0.00 0.01 0.00 60 1007.5
20260508133932 46 0 16.5 26.1 0.00 0.01 0.00 61 1007.7
20260508132402 46 23 13.0 29.5 0.00 0.01 0.00 61 1007.4
20260508131852 46 0 11.3 27.8 0.00 0.01 0.00 62 1007.3
20260508131342 46 338 17.4 27.8 0.00 0.01 0.00 62 1007.2
20260508130832 46 338 11.3 23.5 0.00 0.01 0.00 64 1007.2
20260508125812 46 338 14.8 27.8 0.00 0.01 0.00 63 1007.2
20260508125305 46 23 13.0 27.8 0.00 0.01 0.00 64 1007.1
20260508124752 45 338 11.3 23.5 0.00 0.01 0.00 64 1007.3
20260508124242 45 338 13.0 23.5 0.00 0.01 0.00 64 1007.3
20260508123733 45 23 13.0 23.5 0.00 0.01 0.00 65 1007.3
20260508123229 44 315 9.6 21.7 0.00 0.01 0.00 67 1006.9
20260508122711 44 0 9.6 21.7 0.00 0.01 0.00 68 1007.3
20260508121651 44 338 13.9 20.9 0.00 0.01 0.00 69 1007.3
20260508121143 44 23 10.4 20.9 0.00 0.01 0.00 69 1006.9
20260508120631 43 23 9.6 18.2 0.00 0.01 0.00 70 1006.9
20260508120121 43 0 10.4 20.9 0.00 0.01 0.00 70 1006.9
20260508115610 43 45 11.3 20.9 0.00 0.01 0.00 71 1006.9
20260508115100 44 23 9.6 21.7 0.00 0.01 0.00 71 1006.8
20260508114550 44 338 12.2 21.7 0.00 0.01 0.00 71 1006.8
20260508114040 44 23 9.6 20.0 0.00 0.01 0.00 72 1006.4
20260508113530 44 338 9.6 20.0 0.00 0.01 0.00 72 1006.5
20260508113020 44 0 13.0 20.0 0.00 0.01 0.00 71 1006.3
20260508111450 45 68 10.4 23.5 0.00 0.01 0.00 72 1006.2
20260508110940 45 90 13.0 25.2 0.00 0.01 0.00 71 1006.1
20260508110430 45 113 13.0 25.2 0.00 0.01 0.00 72 1006.0
20260508105919 45 135 10.4 25.2 0.00 0.01 0.00 72 1006.3
20260508105413 45 90 7.0 20.9 0.00 0.01 0.00 73 1006.0
20260508104904 45 113 11.3 20.9 0.00 0.01 0.00 72 1005.9
20260508104353 45 90 9.6 18.2 0.00 0.01 0.00 72 1006.2
20260508103333 45 90 8.7 20.0 0.00 0.01 0.00 73 1005.8
20260508101802 45 90 8.7 18.2 0.00 0.01 0.00 74 1005.9
20260508101252 46 90 10.4 18.2 0.00 0.01 0.00 74 1005.8
20260508100742 46 113 8.7 18.2 0.00 0.01 0.00 74 1005.8
20260508100232 46 90 7.0 18.2 0.00 0.01 0.00 75 1005.8
20260508095722 46 90 10.4 20.9 0.00 0.01 0.00 74 1005.6
20260508095212 46 90 7.8 20.9 0.00 0.01 0.00 74 1005.7
20260508094702 46 90 10.4 19.1 0.00 0.01 0.00 73 1005.6
20260508094151 46 90 10.4 19.1 0.00 0.01 0.00 73 1005.4
20260508093132 46 90 13.0 18.2 0.00 0.01 0.00 73 1005.3
20260508092621 46 90 11.3 18.2 0.00 0.01 0.00 73 1005.1
20260508092112 46 113 7.8 18.2 0.00 0.01 0.00 73 1005.1
20260508091601 46 90 13.0 17.4 0.00 0.01 0.00 72 1004.9
20260508091051 46 90 11.3 18.2 0.00 0.01 0.00 73 1004.8
20260508090541 46 90 11.3 18.2 0.00 0.01 0.00 73 1004.7
20260508090031 46 90 12.2 17.4 0.00 0.01 0.00 73 1004.9
20260508085520 46 90 8.7 17.4 0.00 0.01 0.00 74 1004.8
20260508084500 46 68 12.2 19.1 0.00 0.01 0.00 74 1004.7
20260508083952 46 68 9.6 20.9 0.00 0.01 0.00 73 1004.7
20260508083440 46 68 9.6 20.9 0.00 0.01 0.00 72 1004.8
20260508082420 46 68 14.8 21.7 0.00 0.01 0.00 71 1004.7
20260508080849 46 45 10.4 20.9 0.00 0.01 0.00 70 1004.6
20260508080339 47 0 9.6 20.9 0.00 0.01 0.00 69 1004.7
20260508075320 47 23 9.6 20.0 0.00 0.01 0.00 69 1004.9
20260508073749 47 45 7.8 23.5 0.00 0.01 0.00 69 1004.9
20260508073238 47 0 9.6 20.9 0.00 0.01 0.00 69 1004.9
20260508072219 47 0 9.6 23.5 0.00 0.01 0.00 68 1004.9
20260508071709 47 23 13.0 23.5 0.00 0.01 0.00 66 1004.8
20260508071159 47 68 11.3 21.7 0.00 0.01 0.00 66 1005.0
20260508070648 47 23 13.0 23.5 0.00 0.01 0.00 66 1005.1
20260508070138 47 0 9.6 23.5 0.00 0.01 0.00 67 1004.8
20260508065628 47 0 9.6 19.1 0.00 0.01 0.00 67 1005.0
20260508065118 47 0 9.6 21.7 0.00 0.01 0.00 68 1004.9
20260508064608 47 0 10.4 21.7 0.00 0.01 0.00 67 1005.1
20260508064058 47 45 13.9 23.5 0.00 0.01 0.00 67 1004.9
20260508063037 47 23 8.7 21.7 0.00 0.01 0.00 69 1005.2
20260508062527 47 0 9.6 21.7 0.00 0.01 0.00 70 1005.2
20260508062017 47 45 9.6 20.9 0.00 0.01 0.00 71 1005.2
20260508061511 47 23 11.3 20.9 0.00 0.01 0.00 70 1005.4
20260508060957 47 23 12.2 18.2 0.00 0.01 0.00 68 1005.3
20260508060446 48 45 9.6 18.2 0.00 0.01 0.00 67 1005.5
20260508055937 48 23 9.6 19.1 0.00 0.01 0.00 65 1005.2
20260508055426 48 338 12.2 23.5 0.00 0.01 0.00 65 1005.2
20260508054407 48 0 11.3 20.0 0.00 0.01 0.00 65 1005.4
20260508053856 48 338 9.6 20.9 0.00 0.01 0.00 64 1005.1
20260508053347 48 338 11.3 21.7 0.00 0.01 0.00 63 1005.0
20260508052836 49 68 13.9 21.7 0.00 0.01 0.00 62 1005.2
20260508052326 49 0 10.4 20.9 0.00 0.01 0.00 65 1005.3
20260508051816 49 68 10.4 19.1 0.00 0.01 0.00 65 1005.2
20260508051306 49 23 8.7 19.1 0.00 0.01 0.00 66 1005.3
20260508045736 49 23 10.4 18.2 0.00 0.01 0.00 72 1005.3
20260508045225 49 45 8.7 18.2 0.00 0.01 0.00 73 1005.2
20260508044205 49 45 7.8 18.2 0.00 0.01 0.00 73 1005.2
20260508043655 49 45 6.1 18.2 0.00 0.01 0.00 73 1005.2
20260508042125 49 338 7.8 19.1 0.00 0.01 0.00 71 1005.4
20260508041614 49 23 11.3 17.4 0.00 0.01 0.00 71 1005.2
20260508041104 49 23 9.6 17.4 0.00 0.01 0.00 72 1005.2
20260508040555 49 23 7.8 17.4 0.00 0.01 0.00 74 1005.1
20260508040044 49 45 6.1 17.4 0.00 0.01 0.00 74 1005.3
20260508035534 49 0 9.6 18.2 0.00 0.01 0.00 73 1005.2
20260508035023 49 23 8.7 18.2 0.00 0.01 0.00 72 1005.3
20260508034514 49 338 8.7 21.7 0.00 0.01 0.00 72 1005.3
20260508034004 49 23 7.8 21.7 0.00 0.01 0.00 72 1005.2
20260508033454 49 338 9.6 17.4 0.00 0.01 0.00 73 1005.4
20260508032943 49 45 9.6 17.4 0.00 0.01 0.00 73 1005.5
20260508032433 49 0 10.4 17.4 0.00 0.01 0.00 75 1005.4
20260508031923 49 338 7.8 20.9 0.00 0.01 0.00 75 1005.4
20260508031413 49 338 8.7 20.9 0.00 0.01 0.00 75 1005.5
20260508030903 49 0 9.6 15.6 0.00 0.01 0.00 74 1005.5
20260508030353 49 315 8.7 15.6 0.00 0.01 0.00 74 1005.2
20260508025333 49 338 10.4 14.8 0.00 0.01 0.01 74 1005.5
20260508024823 49 315 9.6 15.6 0.00 0.01 0.01 75 1005.4
20260508024313 49 0 7.0 15.6 0.00 0.01 0.01 76 1005.4
20260508023803 49 23 7.0 19.1 0.00 0.01 0.01 77 1005.7
20260508023252 49 23 11.3 19.1 0.00 0.01 0.01 76 1005.9
20260508022742 49 23 9.6 18.2 0.00 0.01 0.01 77 1005.7
20260508021722 50 23 7.8 19.1 0.00 0.01 0.01 75 1005.7
20260508021212 50 338 10.4 19.1 0.00 0.01 0.01 74 1005.7
20260508020702 50 23 5.2 19.1 0.00 0.01 0.01 74 1005.7
20260508020151 50 0 9.6 20.0 0.00 0.01 0.01 73 1005.5
20260508015641 50 0 13.9 20.0 0.00 0.01 0.01 72 1005.6
20260508015131 50 0 9.6 21.7 0.00 0.01 0.01 73 1005.7
20260508014621 50 23 11.3 21.7 0.00 0.01 0.01 74 1005.6
20260508014111 49 0 10.4 23.5 0.00 0.01 0.01 75 1005.6
20260508013601 49 0 9.6 23.5 0.00 0.01 0.01 76 1005.4
20260508013051 49 0 8.7 21.7 0.00 0.01 0.01 78 1005.6
20260508012544 49 0 7.8 21.7 0.00 0.01 0.01 77 1005.7
20260508012032 49 338 13.9 20.0 0.00 0.01 0.01 77 1005.4
20260508011526 50 0 12.2 23.5 0.00 0.01 0.01 76 1005.6
20260508010501 50 23 11.3 26.9 0.00 0.01 0.01 77 1005.9
20260508005441 50 23 13.9 23.5 0.00 0.01 0.01 78 1006.2
20260508004930 50 45 13.0 23.5 0.00 0.01 0.01 80 1005.9
20260508004420 49 338 12.2 25.2 0.00 0.01 0.01 80 1006.1
20260508003909 50 0 13.9 26.9 0.01 0.01 0.01 80 1005.9
20260508002850 49 0 13.0 25.2 0.01 0.01 0.01 82 1005.9
20260508002340 49 338 16.5 26.1 0.01 0.01 0.01 83 1005.8
20260508001830 49 45 13.0 26.1 0.01 0.01 0.01 85 1005.9
20260508001320 49 0 14.8 26.1 0.01 0.01 0.01 85 1005.8
20260508000809 49 0 13.0 26.1 0.01 0.01 0.01 86 1005.8
20260508000259 49 0 11.3 23.5 0.01 0.01 0.01 88 1005.7
20260507235749 49 0 14.8 23.5 0.01 0.01 0.01 90 1005.8
20260507235239 48 338 13.0 26.1 0.01 0.01 0.01 91 1005.8
20260507234729 48 0 16.5 26.1 0.01 0.01 0.01 92 1005.6
20260507234219 48 248 18.2 26.1 0.01 0.01 0.01 92 1005.7
20260507233708 48 315 16.5 25.2 0.00 0.00 0.00 91 1005.6
20260507232648 49 338 15.6 27.8 0.00 0.00 0.00 89 1005.7
20260507232138 49 338 14.8 27.8 0.00 0.00 0.00 89 1005.5
20260507231629 49 0 15.6 27.8 0.00 0.00 0.00 91 1005.7
20260507231118 48 23 16.5 27.8 0.00 0.00 0.00 92 1005.2
20260507230057 48 0 14.8 26.1 0.00 0.00 0.00 93 1005.0
20260507225547 49 338 12.2 26.1 0.00 0.00 0.00 92 1004.9
20260507225037 49 23 13.9 26.9 0.00 0.00 0.00 91 1004.8
20260507224533 49 338 13.0 26.9 0.00 0.00 0.00 89 1004.8
20260507224017 50 0 16.5 25.2 0.00 0.00 0.00 88 1004.7
20260507223507 50 90 12.2 29.5 0.00 0.00 0.00 88 1005.0
20260507222957 50 0 13.0 29.5 0.00 0.00 0.00 87 1004.9
20260507222447 50 338 15.6 23.5 0.00 0.00 0.00 88 1004.7
20260507221937 50 338 13.9 25.2 0.00 0.00 0.00 88 1004.8
20260507220406 50 0 13.0 23.5 0.00 0.00 0.00 90 1004.9
20260507215856 50 45 9.6 20.0 0.00 0.00 0.00 91 1004.7
20260507215346 50 23 9.6 23.5 0.00 0.00 0.00 92 1004.6
20260507214836 50 338 15.6 23.5 0.00 0.00 0.00 92 1004.4
20260507214329 50 23 10.4 15.6 0.00 0.00 0.00 91 1004.7
20260507205704 51 338 12.2 23.5 0.00 0.04 0.00 90 1004.4
20260507203624 53 0 9.6 20.9 0.00 0.04 0.00 86 1004.2
20260507203114 53 338 14.8 21.7 0.00 0.04 0.00 86 1004.2
20260507202604 53 23 12.2 21.7 0.00 0.04 0.00 86 1004.2
20260507202054 53 23 11.3 21.7 0.00 0.04 0.00 85 1003.8
20260507201544 53 45 13.9 21.7 0.00 0.04 0.00 85 1003.6
20260507201034 53 0 13.0 23.5 0.00 0.04 0.00 85 1003.5
20260507200524 53 23 14.8 23.5 0.00 0.04 0.00 85 1003.3
20260507200014 53 0 14.8 20.9 0.00 0.04 0.00 85 1003.6
20260507195504 53 338 9.6 20.9 0.00 0.04 0.00 84 1003.6
20260507194953 53 338 12.2 20.9 0.00 0.04 0.00 84 1003.3
20260507194443 53 45 11.3 23.5 0.00 0.04 0.00 86 1003.1
20260507193933 52 45 11.3 23.5 0.00 0.04 0.00 87 1002.7
20260507193423 52 0 15.6 23.5 0.00 0.04 0.00 87 1002.9
20260507192912 53 0 14.8 23.5 0.00 0.04 0.00 84 1002.9
20260507192403 53 338 10.4 26.1 0.00 0.04 0.00 83 1003.1
20260507191856 53 0 14.8 26.1 0.00 0.04 0.00 82 1003.2
20260507191343 53 338 14.8 23.5 0.00 0.04 0.00 82 1003.5
20260507190832 53 0 17.4 26.1 0.00 0.04 0.00 83 1003.7
20260507190323 53 45 14.8 26.1 0.00 0.04 0.00 83 1004.1
20260507185305 54 23 13.0 23.5 0.00 0.04 0.00 83 1003.9
20260507184752 54 0 13.0 23.5 0.00 0.04 0.00 82 1004.1
20260507183732 54 338 16.5 26.9 0.00 0.04 0.00 83 1004.4
20260507183221 54 0 13.0 25.2 0.00 0.04 0.00 84 1004.3
20260507182712 54 315 14.8 20.0 0.00 0.04 0.00 84 1004.2
20260507182201 54 338 13.0 20.9 0.00 0.04 0.00 85 1004.3
20260507181651 54 0 12.2 23.5 0.00 0.04 0.00 85 1004.2
20260507181141 54 0 14.8 23.5 0.00 0.04 0.00 86 1004.3
20260507180634 54 45 13.9 23.5 0.00 0.04 0.00 87 1004.2
20260507180133 53 45 8.7 18.2 0.00 0.05 0.00 88 1004.2